Wind_Speed
11 10 12 13 14 16 17 17 16 14 9 9 11 10 12 11 9 12 9 6 6 8 10 11 10 9 8 7 7 9 11 11 12 12 12 14 14 15 16 16 16 16 15 18 23 26 26 26 25 24 23 23 24 24 24 25 25 25 25 23 23 23 22 23 23 23 23 22 21 20 19 18 17 17 16 15 14 13 13 13 12 12 12 11 11 11
12 13 15 17 17 15 16 18 17 16 12 9 10 10 11 12 11 11 7 5 6 7 9 10 10 11 10 10 9 8 11 12 12 13 14 15 15 14 16 17 16 14 13 16 21 24 27 26 26 25 23 24 25 25 26 26 26 26 26 25 25 24 24 24 24 24 23 22 21 19 18 17 16 16 16 15 14 14 13 13 13 13 12 12 12 11
13 15 18 18 17 15 14 16 18 18 15 11 10 9 10 11 11 11 8 7 7 6 9 11 11 12 11 11 9 9 11 11 11 14 14 15 16 15 16 16 16 15 14 17 19 22 26 26 26 25 23 25 26 26 26 27 27 26 27 26 25 25 25 25 25 24 23 22 20 18 17 16 15 15 15 14 13 13 13 13 14 14 13 13 12 12
12 14 19 19 16 17 15 14 16 15 13 12 11 10 11 11 11 9 8 8 6 7 9 11 11 11 11 11 11 11 12 11 11 14 14 14 15 15 16 15 16 17 16 17 18 19 23 26 27 26 24 25 26 26 26 27 27 26 27 27 26 26 26 26 26 25 23 21 20 18 15 15 14 12 13 13 13 13 14 14 14 14 15 15 14 13
14 10 14 20 18 17 16 15 16 13 11 14 15 13 12 12 13 9 5 5 4 8 10 10 10 11 12 13 13 11 12 12 11 12 13 13 14 14 15 15 16 17 17 18 19 19 20 23 26 27 25 25 26 26 27 27 27 26 27 28 27 26 26 26 26 25 22 20 19 18 15 14 13 12 13 14 14 15 15 15 15 14 15 15 15 14
16 10 10 19 20 18 18 16 16 14 10 13 17 18 16 12 13 12 8 5 6 8 9 9 10 10 12 16 14 9 10 12 11 12 14 13 13 14 14 15 16 17 17 17 19 19 19 22 25 27 27 26 26 27 27 27 27 26 26 27 27 26 25 25 25 25 23 21 21 19 18 17 16 16 16 16 16 16 16 16 16 15 15 16 16 15
14 14 12 17 19 19 19 16 17 17 11 11 13 16 19 16 14 13 11 8 8 8 7 7 9 10 10 13 11 8 10 11 11 12 13 13 13 14 13 14 15 16 17 17 18 19 20 22 25 26 28 29 27 27 26 26 27 27 26 27 27 26 24 24 25 27 25 22 22 22 21 20 19 18 17 17 17 16 16 16 16 15 15 16 17 16
13 18 16 18 19 17 17 14 16 17 12 10 10 11 16 18 17 15 12 10 8 9 7 8 9 10 10 11 10 10 11 12 13 13 13 13 15 15 15 16 16 17 17 17 18 20 20 22 25 28 30 30 28 27 26 26 27 28 27 27 27 26 24 24 25 28 27 24 23 23 22 21 20 18 16 16 17 16 15 15 16 16 15 16 17 17
16 20 19 20 18 13 13 14 16 18 14 11 7 6 10 14 16 15 11 11 9 9 10 11 12 10 10 11 10 11 12 12 13 14 15 15 16 17 17 17 18 18 18 18 19 20 21 23 27 29 30 29 28 27 27 27 27 27 27 26 27 26 25 24 25 27 27 26 24 23 22 21 20 19 16 15 16 16 15 15 16 16 15 15 16 18
13 18 19 18 15 12 13 14 16 18 15 11 7 5 8 10 12 12 10 10 9 11 13 13 14 11 11 11 11 12 13 13 13 13 14 16 16 17 17 18 18 17 17 18 20 20 21 25 28 28 28 28 28 28 28 27 26 26 27 27 27 27 26 25 26 27 27 26 24 23 23 22 20 19 18 16 16 17 17 17 17 17 16 16 16 17
9 11 15 15 14 13 12 12 15 17 16 13 9 7 8 8 9 9 9 8 9 13 14 15 16 13 12 11 10 12 12 13 13 13 13 15 16 17 17 17 17 16 16 17 19 19 21 25 27 26 26 27 28 27 27 27 27 27 27 28 29 28 26 25 26 28 27 26 24 23 23 23 22 20 19 18 18 18 18 18 18 17 16 16 16 17
12 10 12 13 15 15 12 12 13 14 16 13 9 8 8 7 7 7 7 8 11 12 11 14 17 16 14 11 9 12 14 15 14 13 14 14 16 17 16 16 16 16 17 17 18 18 19 21 23 25 27 28 28 28 28 28 27 27 27 28 28 29 27 26 27 28 27 26 26 24 23 23 22 21 21 21 20 20 19 19 18 17 16 17 17 17
16 13 11 13 17 17 14 12 11 12 14 13 10 9 9 7 7 8 9 10 11 10 8 11 14 15 15 11 10 13 14 16 15 13 14 14 15 15 16 16 15 15 17 17 17 17 18 18 20 23 27 28 28 29 30 29 28 28 27 29 29 29 29 28 28 29 28 28 28 26 24 24 24 23 23 22 22 21 20 19 19 18 18 17 18 19
13 13 16 16 14 17 17 12 10 11 13 13 11 10 10 8 8 9 10 9 9 9 10 10 9 11 12 10 13 18 15 13 13 12 13 13 13 13 15 16 15 16 17 16 17 17 17 18 19 22 27 28 29 30 31 30 29 28 28 30 30 30 31 31 30 30 28 28 28 27 25 24 25 25 24 23 22 22 21 20 20 20 19 19 19 20
14 12 17 19 12 16 21 16 12 11 11 14 12 10 10 9 8 7 7 9 9 8 11 12 8 8 7 2 6 13 15 15 14 14 14 13 14 13 14 16 15 16 17 16 17 18 19 20 21 23 27 29 30 31 31 31 30 29 29 30 31 31 32 32 32 31 29 29 29 28 27 26 26 25 24 24 23 22 22 21 21 21 21 20 20 20
17 12 13 20 15 17 22 18 15 13 11 12 12 11 11 10 8 6 4 6 6 6 9 11 8 6 4 1 1 5 10 14 15 15 15 15 15 14 13 15 15 15 17 17 17 19 20 21 21 24 27 29 30 31 31 31 31 31 30 30 32 32 32 33 33 32 30 30 30 29 29 29 27 25 24 24 24 23 23 22 21 22 22 21 20 20
13 10 12 20 19 18 21 19 18 15 9 9 12 13 12 11 10 8 5 4 4 7 7 8 9 8 6 7 8 9 9 11 13 14 14 14 14 14 12 13 15 15 16 17 17 18 20 20 21 25 27 28 30 31 33 33 34 33 32 31 32 32 32 33 34 33 32 32 31 30 30 29 29 27 26 25 25 24 23 21 22 21 21 22 21 20
9 8 11 19 21 19 19 20 20 18 12 8 11 13 11 11 11 8 7 6 7 9 8 9 12 11 8 7 8 14 14 12 13 14 14 14 13 13 13 13 15 16 16 18 18 18 18 19 20 24 27 29 31 32 34 35 35 34 33 32 33 33 33 34 34 33 33 33 32 31 30 31 31 30 28 26 24 24 23 22 22 22 22 22 22 21
8 7 10 17 20 18 18 18 17 19 19 12 9 11 11 10 10 8 7 8 9 9 8 11 13 10 9 6 4 10 15 14 14 13 13 14 14 13 14 14 16 15 15 16 16 16 17 19 21 25 29 31 33 33 34 35 34 33 33 33 33 35 36 35 33 33 33 33 32 31 31 33 32 30 29 27 24 23 24 24 23 23 23 22 22 22
6 7 7 13 18 17 15 14 13 15 19 15 10 11 11 8 8 9 8 7 8 8 7 9 11 8 8 9 8 8 10 11 13 13 13 14 14 14 13 14 14 14 14 14 15 16 18 20 23 27 30 31 32 31 31 32 33 33 33 33 33 33 33 34 33 33 34 34 32 31 32 33 33 31 30 29 26 24 25 25 24 24 24 23 22 23
6 8 5 10 17 16 12 13 15 15 15 14 12 12 12 9 7 8 9 8 8 8 7 7 7 4 1 5 11 12 11 11 11 11 12 13 14 14 14 13 13 13 14 15 15 17 19 19 22 26 28 28 28 28 28 30 32 33 32 32 33 33 32 34 34 33 34 34 33 33 33 33 33 33 32 30 28 27 26 26 26 25 24 24 24 24
5 7 7 8 12 13 12 13 17 17 16 15 12 12 13 11 9 8 9 10 9 8 7 6 6 3 3 3 5 7 9 10 10 11 11 11 12 12 12 12 11 11 13 14 14 15 16 16 17 21 24 25 26 28 29 29 30 31 32 33 33 33 33 34 35 34 33 33 33 34 34 34 33 33 33 31 29 29 28 27 27 27 26 25 25 25
2 5 8 8 9 10 12 15 18 19 19 18 14 13 13 12 11 9 8 8 9 9 8 7 7 3 5 5 2 1 4 6 7 9 9 9 10 9 9 9 8 8 9 10 11 11 11 12 14 17 21 24 26 28 29 29 29 30 32 32 32 33 34 34 34 34 33 33 34 35 35 34 33 33 33 32 31 30 30 28 28 28 28 27 26 26
2 5 8 8 7 8 9 12 16 19 19 17 15 15 15 15 13 10 8 7 7 10 9 7 8 5 5 4 3 4 5 5 5 6 7 7 7 7 7 6 5 6 7 8 9 9 9 10 12 15 17 20 24 26 28 29 30 30 31 32 32 33 35 35 34 33 33 33 34 34 34 34 33 33 33 33 32 31 31 30 29 29 29 29 28 27
4 8 10 9 7 8 8 10 13 17 16 13 13 17 17 18 18 14 11 8 8 10 11 9 7 4 5 5 4 4 5 4 3 4 4 4 5 5 4 2 3 4 5 7 8 9 11 11 12 14 14 16 21 25 27 28 30 30 31 33 33 33 34 34 33 33 34 34 34 34 34 34 34 34 34 34 33 32 32 31 30 29 30 30 30 28
4 7 10 11 11 11 11 9 8 11 14 11 12 19 21 21 22 16 10 10 9 10 12 10 6 3 7 7 6 6 6 4 3 2 2 3 4 4 2 1 2 4 5 7 8 9 11 11 11 13 14 16 21 24 25 27 29 30 30 32 33 32 32 33 33 33 33 33 33 34 35 35 35 35 35 35 33 33 33 33 32 30 30 30 31 30
4 5 6 6 5 5 3 2 3 2 11 16 17 20 20 21 22 16 11 10 9 9 11 11 8 5 8 9 8 7 6 3 2 3 4 3 1 0 1 0 2 4 5 6 7 8 9 10 12 14 14 16 21 23 24 26 27 27 28 30 31 31 31 32 33 33 33 33 32 34 35 36 36 36 36 35 34 33 33 34 33 32 31 30 30 31
4 5 4 3 2 2 3 4 5 3 7 15 18 20 20 20 21 19 15 12 9 9 10 10 12 11 9 10 8 5 3 3 3 5 6 3 3 3 2 2 3 5 6 6 7 8 10 11 12 13 14 16 20 23 24 26 27 27 28 29 30 30 30 31 32 33 33 32 32 33 35 35 35 35 34 34 34 34 34 33 33 33 31 30 30 30
4 4 3 3 3 2 2 2 2 1 2 5 10 14 17 19 21 20 18 16 13 10 8 7 12 14 12 11 10 7 6 6 6 7 7 6 6 5 3 5 7 5 7 7 8 9 10 11 11 12 13 15 18 22 24 25 26 27 28 29 29 30 30 30 31 33 33 32 32 33 33 33 33 32 33 33 33 34 34 33 32 32 31 30 29 29
4 0 2 3 4 3 4 2 1 1 2 4 7 9 11 14 16 16 16 17 17 15 12 11 13 13 12 12 13 12 10 10 9 9 10 12 13 11 8 9 10 7 5 5 7 9 9 9 10 11 12 13 15 20 23 23 25 27 29 29 29 30 31 30 31 32 32 32 32 31 31 31 31 31 31 33 33 34 34 33 31 31 31 31 29 28
4 1 2 4 4 5 5 4 4 3 4 6 9 10 11 12 13 13 12 13 15 14 14 15 14 12 10 9 10 10 8 8 8 10 12 13 15 16 14 13 11 10 9 7 5 7 6 7 8 10 12 14 16 19 22 23 25 27 28 28 28 30 31 30 30 31 32 33 31 29 29 30 31 30 31 32 33 33 33 33 31 30 30 30 29 28
5 2 1 3 5 6 6 6 6 5 6 10 12 13 14 13 13 12 11 12 12 12 14 15 13 10 8 8 8 8 9 10 11 12 12 12 14 16 15 14 13 12 12 12 7 4 5 6 8 10 12 14 16 20 23 23 24 25 27 28 29 29 29 29 30 30 31 31 29 28 29 30 30 29 30 31 32 31 31 31 30 29 29 29 29 29
4 4 2 2 5 5 6 5 4 4 7 11 12 15 17 16 14 14 13 14 14 13 13 12 10 8 8 9 10 10 11 13 13 12 12 12 13 15 16 15 15 15 15 14 11 6 5 5 7 9 11 12 15 20 23 24 24 26 27 27 26 25 26 29 30 29 28 28 27 27 28 28 28 29 29 30 30 29 29 30 30 30 29 28 28 28
3 4 3 2 4 4 4 2 3 6 9 6 3 7 14 16 16 16 15 15 15 14 12 11 9 8 8 8 8 8 9 10 11 11 11 11 10 12 14 15 15 15 15 14 13 10 6 5 5 7 9 11 14 17 20 24 26 26 25 25 25 25 26 28 29 27 25 26 26 26 27 27 28 28 28 28 28 27 28 30 31 30 28 27 28 28
4 4 4 3 4 5 2 2 7 8 5 2 4 3 4 8 10 11 11 12 13 13 14 14 12 11 10 9 8 9 10 10 11 11 11 12 10 9 12 13 13 14 14 13 13 11 6 5 5 6 7 9 12 14 17 22 24 23 23 24 26 28 28 28 28 27 25 26 28 28 27 29 29 27 27 26 27 27 28 28 29 29 29 28 28 28
6 5 4 4 4 5 4 6 8 3 2 2 3 4 3 5 6 7 11 14 13 10 9 10 10 10 11 11 10 10 10 9 9 9 11 13 12 11 13 14 14 14 12 10 8 7 5 5 7 7 7 8 10 13 16 18 20 21 22 24 26 27 27 27 27 27 27 27 30 30 30 30 30 28 27 27 27 28 29 29 30 30 30 29 28 28
8 5 4 5 6 6 6 7 7 3 3 4 5 5 3 4 4 3 8 8 5 1 1 4 7 9 10 9 8 7 8 8 8 9 13 16 15 14 14 13 12 10 8 7 7 7 7 8 9 9 9 10 12 13 14 15 17 19 21 23 24 25 26 27 27 28 28 28 30 31 30 30 30 29 28 28 29 30 31 31 32 31 30 30 29 28
9 7 5 6 6 6 6 7 7 7 7 5 6 7 5 3 3 2 4 3 6 5 1 2 4 6 8 6 5 5 6 7 9 8 10 13 13 11 10 9 7 7 6 6 7 8 8 9 9 10 10 11 12 12 12 13 16 18 19 21 23 24 24 26 27 28 29 28 27 28 28 28 28 28 29 29 30 32 32 32 31 30 29 29 29 29
12 9 6 6 6 7 8 8 8 7 4 3 7 8 6 3 2 2 4 5 5 6 2 2 3 5 5 5 5 4 4 8 9 4 5 8 5 3 4 4 4 4 5 6 7 8 8 9 10 11 12 11 11 11 12 13 15 17 19 20 21 22 23 26 28 27 26 24 23 23 25 27 28 29 29 31 32 32 31 30 28 27 27 28 28 28
11 8 7 8 8 7 8 8 6 6 2 4 5 6 6 3 2 4 6 4 5 5 3 2 4 5 5 5 5 4 5 6 5 4 8 10 7 5 4 4 4 5 5 5 6 7 8 9 9 10 10 8 7 8 10 13 15 16 17 18 20 21 22 24 23 21 21 21 21 23 26 28 29 30 30 31 31 29 27 27 26 26 27 27 27 26
9 8 8 9 9 8 10 8 6 5 3 2 4 4 4 1 3 5 4 2 3 0 2 2 5 5 5 5 5 4 5 6 8 9 9 9 7 5 5 5 5 4 5 5 6 7 7 6 5 6 4 2 2 6 8 11 13 14 14 16 17 19 18 18 17 17 19 21 22 23 27 28 27 28 29 27 25 24 23 24 24 25 25 25 25 25
8 8 7 8 8 8 8 8 7 6 1 1 6 5 1 3 4 1 0 1 2 2 1 2 5 4 4 6 6 6 8 10 12 12 10 9 8 6 5 6 6 5 6 6 7 6 6 4 4 4 4 3 0 3 6 9 11 12 13 14 15 17 16 14 15 17 19 22 23 23 24 25 24 24 23 21 21 21 21 22 22 22 23 23 23 24
5 6 8 9 8 7 8 8 8 6 2 7 5 3 4 4 3 5 3 2 2 3 3 3 3 3 4 6 7 8 10 11 11 11 10 9 8 6 4 5 6 6 6 6 7 8 7 4 4 5 6 5 4 2 3 7 9 10 11 12 12 14 14 12 13 16 18 20 22 21 21 22 22 21 21 21 22 21 21 22 22 22 22 22 22 24
4 5 5 6 4 5 9 8 3 2 4 8 6 3 3 6 7 8 6 4 2 2 4 3 3 3 5 7 8 9 9 10 9 10 9 9 8 6 4 4 4 5 5 5 6 8 7 4 4 7 8 8 7 6 4 4 8 9 8 6 5 8 10 10 10 13 15 17 18 19 18 19 20 21 21 21 22 21 22 22 22 22 22 22 23 24
2 1 3 3 2 4 7 6 7 10 9 7 6 6 9 12 10 8 8 7 4 3 4 4 4 5 6 7 8 8 8 8 8 8 8 7 6 5 4 3 3 3 3 4 5 6 6 5 6 7 8 9 10 9 8 7 6 7 6 5 4 4 7 8 9 11 12 14 16 17 17 17 19 20 21 21 21 21 22 22 22 22 22 21 23 25
1 1 2 4 5 7 9 10 10 13 13 10 8 8 10 11 11 9 8 7 6 5 4 4 5 5 5 5 6 6 6 6 6 6 6 6 5 4 3 2 1 2 3 4 5 5 5 6 7 8 9 11 10 10 10 10 9 8 6 4 2 3 4 7 9 10 11 12 13 15 16 16 17 19 20 21 21 21 21 21 21 21 21 22 25 25
3 2 2 4 6 7 6 7 9 12 13 12 11 10 10 10 10 9 8 8 7 7 6 4 4 4 3 3 4 4 3 3 4 5 4 3 3 2 2 1 2 3 4 5 5 5 5 6 7 8 10 11 11 10 10 10 10 8 5 3 2 1 3 5 7 9 10 11 12 13 14 15 16 16 18 19 19 19 19 19 20 20 20 22 24 23
1 1 2 7 8 8 8 10 12 15 16 15 13 10 9 9 11 11 10 9 8 7 6 4 2 1 1 1 2 3 2 3 5 5 3 2 2 2 2 2 3 4 5 6 7 6 6 7 7 8 9 10 10 11 11 11 10 9 7 5 3 2 3 5 6 7 8 9 9 9 11 13 13 13 14 15 17 17 17 17 18 20 21 22 23 22
4 5 6 7 8 10 11 12 13 14 15 16 14 9 6 7 10 13 13 12 10 9 7 4 1 2 2 2 2 3 3 4 5 6 4 3 4 4 4 4 4 4 6 7 8 8 7 7 8 9 10 10 10 10 10 11 10 10 9 8 6 5 6 7 6 7 7 7 7 7 7 8 10 10 11 12 13 14 16 16 15 15 15 17 19 19
7 8 8 7 8 9 9 9 9 9 10 10 9 7 8 9 11 13 14 13 12 10 9 6 2 3 3 3 3 3 3 4 5 5 4 4 5 5 5 5 4 4 5 6 7 8 9 8 8 9 10 10 10 10 10 10 10 10 10 9 8 8 9 10 10 9 8 7 6 6 5 5 6 7 8 10 11 11 11 12 11 10 10 10 11 12
8 9 8 8 10 11 11 11 9 8 10 11 11 12 12 12 12 13 14 14 13 11 9 7 3 3 4 4 4 4 4 4 4 4 4 5 5 5 6 6 5 5 6 7 8 8 8 8 8 9 10 10 10 10 10 10 10 10 10 9 8 7 8 9 9 9 9 8 7 6 6 5 5 5 5 6 8 5 3 4 7 9 11 12 12 13
Wind_Direction
189 204 205 211 212 206 209 213 220 225 229 241 226 218 227 228 225 220 209 184 214 247 237 235 247 244 242 235 217 203 199 206 212 210 208 203 200 197 195 197 196 194 190 183 184 187 188 189 188 188 189 190 191 191 189 189 188 188 187 186 186 187 187 187 190 193 195 198 199 201 204 205 205 206 208 210 212 213 213 210 206 208 212 215 216 217
194 215 214 209 213 212 209 211 219 225 225 232 230 225 229 231 234 227 205 184 212 248 247 242 251 250 247 250 242 212 200 207 210 211 211 205 203 202 199 198 195 193 188 182 183 186 188 189 188 188 189 190 191 191 190 190 190 190 190 191 189 188 189 191 192 193 196 198 199 199 201 202 200 201 203 207 209 211 211 207 206 209 211 213 215 217
203 220 217 208 210 215 216 213 213 221 225 228 232 235 235 229 233 229 206 209 230 245 252 250 255 257 253 252 244 216 206 208 212 216 214 207 206 204 202 199 193 189 187 186 185 185 187 188 187 187 189 191 192 191 191 191 191 191 193 194 193 191 192 194 194 194 196 197 197 197 198 199 200 200 202 206 207 208 210 207 207 212 213 212 214 215
205 218 214 209 208 211 214 208 206 214 223 229 231 232 235 230 230 227 200 202 230 244 258 266 267 264 257 248 238 223 213 209 212 217 217 212 210 208 205 200 194 190 188 189 187 186 187 187 188 188 189 191 191 191 191 191 191 192 195 195 194 194 194 194 195 195 195 195 195 196 197 199 203 203 200 202 205 207 209 209 209 212 214 214 214 213
213 210 204 208 208 206 205 201 204 213 222 228 230 231 236 231 232 237 202 179 224 236 246 264 270 263 253 248 241 221 207 208 210 211 214 215 213 211 208 203 199 194 189 189 189 188 187 187 189 189 189 190 191 192 191 191 192 193 195 195 195 196 195 195 195 193 193 192 191 192 194 197 201 204 200 200 204 205 207 210 209 210 211 212 213 212
222 205 188 205 205 201 207 210 210 213 224 227 225 229 237 239 238 240 235 232 246 237 227 239 257 257 244 246 245 216 196 202 201 203 209 210 210 211 209 205 202 198 193 191 191 190 188 188 189 190 191 192 193 193 192 191 192 194 195 195 195 196 197 197 195 192 191 190 190 189 191 195 199 203 203 202 204 204 206 210 210 209 209 210 211 212
223 206 188 201 201 201 213 219 212 210 223 232 221 222 230 237 241 238 236 237 247 252 231 217 246 262 251 245 235 205 201 199 191 201 206 204 207 208 208 207 202 201 197 193 193 193 191 189 189 191 193 195 195 194 192 192 192 193 194 194 195 196 198 198 196 193 192 191 193 194 197 201 203 205 206 205 206 206 207 209 208 208 208 208 211 213
212 204 190 196 201 204 214 218 208 205 218 231 220 220 223 225 231 234 238 242 249 261 246 211 231 261 260 247 229 209 209 199 189 199 203 202 206 206 208 208 204 202 199 194 194 193 193 193 192 192 194 196 196 192 191 193 192 192 192 192 193 195 197 197 196 196 195 194 195 198 202 206 209 211 209 205 205 207 207 206 205 206 207 208 210 213
199 203 193 192 201 206 212 213 203 201 216 226 214 224 225 220 226 232 239 246 247 254 247 225 226 248 255 246 240 228 220 212 203 204 205 204 204 206 209 210 207 204 200 197 196 194 195 196 195 195 194 195 195 192 192 193 192 191 190 190 191 193 195 196 195 195 197 197 198 200 203 207 212 213 210 204 202 203 202 202 201 203 207 208 210 213
196 206 201 195 202 210 208 209 204 200 213 219 198 203 216 217 226 229 235 244 243 245 245 232 226 240 254 244 234 227 222 223 224 217 211 207 204 205 208 210 208 204 201 201 199 196 196 197 197 196 194 194 194 194 194 192 191 190 189 189 190 192 195 196 197 197 199 201 200 201 204 207 209 208 206 203 200 199 198 200 201 202 206 209 212 214
203 200 207 203 209 214 205 206 208 204 210 211 196 197 211 213 222 226 229 237 243 243 240 233 229 239 255 248 231 229 225 222 229 230 220 207 203 205 206 209 208 203 202 202 202 200 197 196 195 195 195 195 195 195 194 192 191 190 189 190 191 193 195 197 201 202 202 204 204 203 204 207 207 203 202 201 200 198 198 201 202 204 207 210 214 216
209 191 204 208 211 213 208 208 207 202 207 210 201 205 216 209 209 220 216 218 236 243 234 228 227 233 247 245 230 235 230 222 226 233 225 209 203 203 202 205 206 203 202 200 201 201 196 193 192 193 195 194 194 195 195 194 192 191 190 190 191 193 193 196 203 204 204 207 209 207 206 208 208 204 202 202 202 200 200 202 204 204 207 210 213 215
214 206 202 202 207 206 205 206 198 193 202 207 204 205 210 198 193 207 208 211 231 239 233 229 224 229 243 246 237 239 234 226 226 232 231 221 212 202 198 202 202 201 202 198 200 200 195 191 189 192 194 192 193 194 195 195 193 191 191 190 191 193 192 194 201 204 203 207 211 211 208 209 210 209 206 205 205 203 203 203 203 203 205 207 210 214
212 212 204 200 200 200 202 203 194 191 196 200 201 202 203 196 194 204 209 216 231 233 224 220 221 235 249 250 236 233 232 227 223 225 230 229 224 209 197 201 201 199 201 199 198 199 196 193 190 191 191 191 193 194 195 195 193 192 191 190 192 192 192 193 197 201 202 206 211 212 210 209 211 212 210 209 209 207 206 205 204 205 206 208 211 214
206 209 202 198 189 188 199 208 201 191 192 199 202 207 210 211 210 209 210 218 228 228 209 198 204 234 241 246 231 227 222 220 223 228 229 227 227 218 201 199 200 199 200 199 198 199 197 195 192 191 189 189 192 193 194 194 193 192 191 191 191 191 192 192 194 197 199 205 210 212 211 211 212 213 212 212 210 209 209 207 206 206 207 210 213 215
213 218 192 192 192 185 194 204 202 192 192 197 199 209 214 214 221 228 243 247 248 243 211 196 210 234 236 323 253 214 209 211 218 224 223 221 220 218 206 199 198 199 199 198 199 200 198 195 193 191 190 190 191 191 192 193 192 192 192 191 191 191 191 191 193 196 199 204 208 210 212 213 213 212 213 213 209 208 210 208 207 207 208 210 212 213
215 219 176 183 194 193 192 195 196 195 193 189 196 211 210 206 220 233 245 261 269 253 225 205 224 237 255 263 231 212 210 206 209 213 214 214 213 210 205 199 198 199 198 198 200 199 197 195 194 193 192 191 190 191 192 192 192 192 191 190 191 191 191 192 194 196 198 201 204 207 209 212 214 213 214 214 209 207 209 208 209 209 209 210 211 211
211 210 169 178 191 191 189 192 195 200 204 196 195 201 197 203 222 233 233 222 222 239 233 221 231 230 231 246 214 206 212 208 205 210 212 211 207 205 203 200 201 200 199 200 199 197 195 195 196 195 194 193 192 192 191 191 191 191 192 191 190 190 191 193 194 195 196 199 202 204 206 210 214 214 215 215 210 206 207 208 210 211 211 211 211 211
209 210 167 178 190 182 181 192 196 200 210 218 205 189 189 202 207 208 225 223 217 231 237 228 234 236 228 230 196 200 211 212 208 208 212 212 206 206 205 201 204 203 200 201 199 197 196 196 197 196 196 196 194 193 192 190 190 191 193 193 193 193 193 193 193 194 196 198 201 204 206 208 211 213 216 217 210 205 206 209 210 210 211 211 211 210
208 220 179 179 188 177 176 197 199 193 203 215 213 195 197 208 203 199 211 223 225 233 238 229 228 234 232 228 223 212 206 208 208 206 212 216 210 208 209 204 201 200 201 201 199 198 198 198 198 198 199 198 195 193 192 191 192 193 193 194 195 196 194 194 194 194 195 198 200 202 203 205 208 210 213 214 210 206 208 210 210 211 212 210 209 210
216 227 207 174 182 182 184 199 200 191 190 200 205 200 198 199 205 209 210 217 232 237 239 238 232 232 242 224 224 223 216 212 215 213 212 217 217 213 212 211 202 196 199 200 200 201 200 200 200 199 200 200 197 194 193 193 195 195 194 195 196 195 194 195 196 195 196 198 199 199 201 203 205 206 209 211 209 209 210 210 210 211 211 210 208 208
218 219 213 181 180 192 197 194 198 199 192 193 201 200 197 196 199 207 207 211 225 238 240 246 249 241 88 126 196 205 212 216 221 225 220 218 222 219 215 213 204 197 201 203 203 204 202 200 201 199 198 199 199 197 196 196 196 196 196 197 197 196 196 197 197 197 196 196 198 200 201 202 203 204 207 209 209 210 210 210 210 210 209 209 209 209
289 229 216 201 188 203 204 189 195 203 196 196 205 201 198 201 202 205 204 200 211 229 238 246 258 249 117 125 150 179 222 225 217 224 229 226 225 223 223 220 205 196 202 206 208 209 205 200 200 199 197 198 201 200 198 197 197 198 199 199 197 197 198 198 197 197 196 196 199 200 201 202 203 204 206 208 209 210 210 210 210 209 208 209 210 210
260 224 216 214 201 204 201 183 193 206 201 201 208 205 205 206 205 211 218 210 209 219 219 224 242 231 141 157 232 236 221 218 203 207 222 227 226 226 235 240 218 194 190 198 203 203 203 200 196 198 198 198 200 201 199 198 199 199 200 199 199 199 199 198 197 196 195 197 199 200 200 202 203 204 206 207 209 210 210 210 210 209 209 210 211 211
216 209 207 212 197 186 188 184 195 205 207 210 209 205 209 210 207 212 221 226 229 222 215 218 231 214 136 158 188 180 182 187 187 202 209 215 230 239 243 229 179 179 181 192 196 194 198 198 194 196 199 198 198 199 200 200 200 201 200 199 200 200 199 197 196 195 196 198 200 200 200 202 203 205 206 207 209 209 210 211 211 210 209 210 212 212
244 211 205 210 205 196 192 189 195 201 202 209 211 206 208 210 208 210 216 221 225 221 219 225 228 143 121 154 178 168 170 179 189 220 223 212 230 244 256 78 141 180 194 198 198 195 197 199 197 196 198 198 199 200 200 201 203 203 202 201 201 200 198 196 196 196 196 197 199 200 201 202 203 206 207 207 209 209 210 212 212 211 210 210 211 211
249 213 215 231 231 219 197 122 12 260 202 199 206 208 207 208 209 210 217 219 215 219 226 229 229 192 150 161 175 170 171 178 208 267 263 235 229 4 49 353 216 205 202 200 197 195 198 201 202 200 199 199 200 201 202 203 205 205 204 204 203 200 198 196 196 196 197 198 199 200 201 202 203 205 206 207 208 209 210 211 212 212 210 210 210 211
234 195 212 262 305 335 354 20 13 335 210 199 203 207 208 208 209 212 220 220 209 219 228 217 218 224 200 174 171 173 196 229 246 264 265 268 344 354 5 319 268 217 193 189 189 192 200 205 206 207 205 204 204 204 204 205 205 205 206 205 204 202 199 197 196 197 198 198 199 200 201 202 202 203 204 205 206 207 209 210 211 210 210 209 209 210
263 199 184 238 264 281 298 333 3 329 235 211 209 207 207 209 211 216 224 224 220 228 238 216 213 225 228 223 229 237 247 255 259 271 279 285 296 301 320 326 302 240 185 180 190 196 204 207 208 210 211 209 209 209 208 208 207 206 206 205 203 203 201 198 196 197 198 199 200 201 200 200 201 202 202 202 203 205 207 209 209 209 209 209 209 210
306 198 83 285 271 237 226 241 262 234 222 224 225 217 213 216 219 224 229 231 233 236 241 239 236 235 235 243 254 257 254 258 263 271 279 282 287 294 301 304 295 269 228 206 198 197 205 210 207 208 209 209 211 211 210 209 208 206 206 205 202 202 202 199 198 198 198 200 202 200 197 196 198 198 199 200 201 202 205 207 208 208 208 208 208 209
325 34 30 310 269 214 208 206 204 224 237 237 236 230 226 226 225 226 229 233 238 241 241 244 249 247 240 246 261 265 265 269 269 272 277 281 287 290 287 284 280 268 267 268 230 192 192 205 207 206 207 207 208 209 210 210 209 208 208 206 204 203 201 198 198 198 199 201 201 197 193 193 195 195 196 198 200 200 202 205 206 207 207 207 208 209
325 336 343 278 241 203 185 195 209 231 252 247 238 230 226 225 225 224 223 225 230 235 240 244 246 245 245 249 255 259 264 269 268 270 273 276 279 282 280 276 269 260 268 285 285 228 194 205 208 208 212 212 208 208 209 209 208 208 209 208 206 203 200 199 200 200 201 201 198 192 191 191 192 193 194 196 198 199 200 202 205 206 205 206 207 207
316 314 308 251 237 191 157 186 227 241 245 245 235 224 222 221 223 225 223 224 225 227 234 241 243 246 249 249 249 249 253 257 259 261 265 267 271 275 276 275 273 274 282 293 296 278 243 235 223 214 217 218 213 212 211 209 208 210 210 209 206 203 201 201 202 201 200 199 194 191 190 190 190 192 194 195 196 198 198 200 204 206 206 206 207 207
288 284 286 284 250 206 154 170 246 229 228 233 214 212 217 217 220 224 224 223 220 221 234 246 252 256 251 246 250 256 258 261 264 264 264 264 266 270 273 276 282 288 291 292 291 286 270 248 238 232 230 228 223 219 215 212 212 212 209 206 203 202 202 203 202 200 198 196 194 192 190 191 193 194 194 194 193 196 199 202 205 207 208 208 208 209
269 254 255 265 252 246 245 220 222 220 215 134 78 96 199 213 221 230 236 236 231 230 238 246 248 250 251 252 260 266 270 273 275 274 272 272 274 274 274 276 279 281 283 284 283 281 268 242 245 249 244 240 235 227 220 217 215 212 208 204 202 201 201 201 201 201 198 195 195 194 192 194 196 194 194 194 193 196 201 204 206 208 209 211 211 211
253 251 251 248 242 251 252 221 212 204 56 109 135 111 137 174 189 221 236 237 239 243 247 252 255 256 259 264 266 269 278 286 285 280 275 274 271 265 266 269 270 272 276 281 284 285 278 264 263 264 258 250 242 232 225 220 215 211 208 204 202 201 200 199 199 201 200 197 195 194 194 194 194 193 194 194 194 198 203 205 208 208 209 211 213 214
237 248 248 239 235 237 240 233 230 270 299 227 170 112 112 143 141 234 243 222 197 172 276 262 264 268 271 276 277 285 301 303 286 271 266 263 256 249 254 263 268 273 278 283 289 291 284 274 269 266 259 247 241 237 229 220 213 210 208 204 202 201 199 198 198 200 201 199 197 195 193 192 192 192 194 194 196 201 205 207 209 209 207 209 212 213
222 235 238 235 231 229 241 245 239 249 255 221 148 111 96 83 67 9 271 201 123 93 55 250 258 271 277 286 297 304 306 284 266 262 271 268 254 241 246 255 262 274 284 290 293 290 284 278 269 262 256 248 243 239 229 219 210 207 207 204 202 200 198 199 200 199 200 199 197 194 190 189 190 191 192 195 198 202 205 206 208 207 206 208 211 213
213 223 232 242 238 225 232 238 231 236 236 128 122 119 112 101 100 142 236 220 132 92 46 280 285 292 292 307 315 306 274 254 249 264 341 337 325 298 285 279 279 290 297 298 300 300 297 293 282 268 255 246 241 233 222 214 209 207 206 204 202 200 201 204 204 201 199 198 194 188 185 187 191 193 194 197 201 204 205 205 205 205 205 209 212 215
207 213 216 229 232 225 232 237 233 241 232 111 121 120 103 96 164 200 225 206 117 80 26 316 302 308 309 313 309 276 244 247 263 330 2 354 346 345 333 314 310 314 310 308 319 323 312 299 285 269 252 238 233 227 214 206 206 207 204 201 202 205 206 208 207 202 198 194 189 186 188 192 195 196 199 201 203 204 204 203 203 204 204 208 213 216
198 206 210 219 223 223 231 236 238 247 245 189 185 149 89 64 220 220 227 140 111 56 335 309 301 311 311 300 294 269 261 283 304 319 332 329 321 327 334 321 314 317 324 337 348 342 321 306 298 289 286 285 242 226 211 201 203 204 199 196 203 210 210 207 204 198 193 190 189 191 195 199 200 201 203 204 202 202 204 204 205 206 206 210 213 215
195 199 206 220 224 220 223 232 242 240 234 276 244 225 236 266 240 223 30 141 194 263 276 271 283 304 305 287 283 280 286 294 297 299 310 318 317 320 327 327 328 335 345 355 359 352 338 331 332 328 339 9 307 218 205 198 198 198 196 196 203 210 210 204 197 192 188 189 192 196 198 200 201 202 204 205 202 202 204 207 209 210 211 214 216 218
204 207 207 208 214 224 224 223 227 219 67 21 329 236 217 258 312 6 345 226 218 291 293 281 292 318 309 291 286 287 289 290 292 298 304 303 302 306 320 335 338 338 345 356 0 358 354 354 0 359 2 13 23 52 172 188 191 193 196 197 199 203 203 200 196 192 189 192 195 197 198 198 199 200 203 205 204 204 206 210 212 214 214 216 221 226
220 225 225 208 200 221 218 207 215 303 4 4 345 308 307 317 338 354 332 303 313 319 302 302 315 321 310 297 292 293 293 290 292 299 298 291 291 293 301 327 332 324 335 355 359 357 359 13 24 18 16 18 22 34 62 146 172 174 172 163 162 180 186 188 192 192 193 195 196 196 196 197 199 202 205 206 205 204 209 211 212 214 214 215 220 227
173 41 310 274 276 282 256 262 319 322 313 324 335 338 337 331 332 339 329 316 318 331 326 314 309 312 308 296 288 286 288 291 291 290 289 288 291 289 288 312 332 319 334 5 12 12 21 36 36 30 30 29 28 33 44 69 113 121 101 83 100 154 175 182 187 191 196 198 196 196 196 197 201 204 204 204 203 204 207 209 210 212 213 214 220 225
185 45 322 286 294 302 287 278 285 287 288 305 325 330 330 327 328 334 332 322 322 327 320 308 307 309 304 298 294 288 285 290 289 283 282 284 283 280 280 295 342 5 10 17 20 26 41 52 47 42 39 37 36 40 46 56 73 78 66 57 86 148 175 188 190 192 197 198 196 197 198 199 202 205 205 205 206 207 208 210 211 212 212 216 222 225
238 177 200 264 282 288 279 273 278 283 290 303 312 315 317 315 319 328 329 326 325 316 304 305 313 307 302 323 332 319 306 316 313 297 288 285 282 286 298 323 24 40 37 29 27 36 55 62 56 49 46 45 45 48 53 59 65 67 67 65 73 143 172 184 190 192 195 198 199 200 201 203 205 207 207 207 209 211 213 213 215 216 216 219 224 225
271 74 246 255 260 262 264 277 287 289 292 292 289 293 304 306 311 321 320 315 313 305 293 296 319 319 295 2 358 342 353 12 349 327 318 337 355 3 12 16 30 43 48 45 39 43 60 68 66 63 61 57 54 53 56 60 60 60 64 66 65 96 134 157 175 182 183 188 194 198 201 205 208 210 210 209 211 216 219 219 221 224 226 228 230 230
271 282 272 263 265 265 263 268 273 274 275 272 267 272 302 314 314 317 314 308 306 299 283 266 164 68 50 82 56 14 26 35 0 337 344 19 21 24 29 26 28 37 43 46 45 46 55 66 72 74 71 65 61 60 59 60 60 61 63 67 75 81 83 96 122 139 149 163 175 180 185 194 200 206 212 214 215 220 225 228 232 236 236 235 235 237
260 263 264 264 265 262 257 258 266 271 270 267 271 297 324 324 314 314 314 310 306 301 292 273 205 114 73 70 74 53 44 37 6 352 16 30 19 25 34 30 33 46 52 59 61 57 56 61 71 76 74 69 67 67 66 64 61 59 58 61 74 88 89 91 98 108 120 134 149 158 158 167 185 199 212 219 220 221 225 229 237 253 265 259 248 246
253 257 262 262 260 262 267 271 279 286 284 284 290 300 306 308 304 305 307 305 301 298 295 285 246 134 95 71 72 75 67 51 24 19 41 44 35 41 48 46 49 56 60 66 72 70 66 64 65 69 70 70 72 73 70 65 59 54 51 51 60 80 95 102 106 108 112 114 117 127 134 138 153 170 189 213 224 228 233 236 241 259 276 279 274 271
Height
747 757 758 755 750 746 747 745 746 743 743 747 747 750 752 751 750 740 738 735 734 748 749 741 744 743 740 737 733 733 734 738 740 741 742 743 746 747 749 750 751 754 753 754 759 764 768 772 776 780 783 786 790 793 796 799 801 803 806 808 810 813 816 819 821 823 825 827 828 830 832 833 834 836 837 838 840 840 842 843 844 845 846 848 849 850
746 755 749 743 742 739 740 742 744 744 745 749 750 751 750 749 747 736 737 738 734 747 748 738 743 743 737 735 728 727 734 738 737 738 740 740 743 744 746 748 749 751 751 752 756 760 764 769 772 777 780 783 786 789 792 795 798 801 803 806 808 811 813 815 818 820 821 823 825 827 828 830 832 833 835 836 837 838 840 841 842 843 845 846 847 849
751 748 739 734 734 735 738 739 743 747 748 751 750 751 751 744 742 737 736 737 735 745 748 740 744 742 732 729 726 726 731 733 730 731 734 736 740 742 743 746 747 749 751 752 754 756 760 764 769 773 776 779 783 786 789 792 795 798 800 803 805 808 810 812 815 816 818 820 822 824 826 828 829 830 832 834 835 837 838 839 840 841 843 845 846 847
749 739 729 728 729 735 741 740 745 749 749 750 748 751 750 740 743 746 740 738 737 740 743 741 743 740 730 727 725 723 724 725 725 725 727 730 735 738 739 741 744 747 751 752 753 754 757 761 765 769 772 775 779 782 785 788 792 794 797 800 802 805 807 809 812 814 816 818 821 823 825 826 828 829 830 832 833 834 836 837 838 839 841 842 844 846
736 725 719 725 728 735 744 745 746 751 750 747 744 747 746 739 741 743 739 740 740 738 737 742 752 745 732 732 727 718 720 723 723 725 727 727 729 732 734 737 739 742 745 749 751 751 753 756 760 764 768 772 775 778 780 784 787 790 794 796 799 802 804 807 809 811 814 817 819 821 823 825 826 827 828 829 831 832 833 835 836 837 839 840 842 844
726 716 716 726 729 734 743 744 742 747 749 746 740 739 740 739 739 739 740 745 753 753 737 741 766 756 730 728 726 718 723 726 724 726 730 729 728 730 733 735 736 737 740 743 745 747 749 752 757 761 765 768 770 773 776 780 784 787 790 794 797 799 802 805 806 809 812 814 816 818 820 821 822 824 825 825 827 829 830 832 833 835 836 838 840 841
718 712 717 726 730 736 741 739 736 739 748 748 734 730 735 738 741 742 744 750 760 758 735 734 764 762 735 727 722 721 729 729 726 728 728 728 729 730 731 732 733 735 736 738 741 743 746 749 752 756 759 762 765 769 773 777 780 784 787 790 794 797 799 802 804 807 809 811 813 815 816 818 819 820 821 822 824 826 828 829 831 833 834 836 837 839
712 714 720 725 729 735 738 735 731 732 746 744 726 725 733 737 742 743 745 750 750 747 738 734 750 762 750 732 719 720 730 730 728 729 727 725 727 727 727 727 728 730 731 734 737 739 741 744 746 749 754 757 761 765 769 773 776 779 783 787 790 794 797 799 802 804 806 808 810 812 814 815 816 817 819 821 823 824 826 828 829 831 832 834 835 837
706 714 719 723 728 731 728 726 723 728 740 734 721 726 732 735 739 740 744 748 743 748 756 743 742 761 756 732 718 719 728 733 729 726 725 722 723 723 724 723 722 724 725 728 731 733 735 738 741 745 749 754 758 762 765 768 772 776 779 783 787 790 793 796 799 801 803 805 807 809 811 813 814 816 818 819 821 823 824 825 827 829 830 831 833 834
702 705 708 717 725 723 719 717 715 724 733 725 721 729 732 733 736 739 744 745 746 757 761 746 740 757 754 731 722 724 728 732 724 718 717 716 716 718 718 718 717 719 721 723 725 727 729 732 737 742 746 751 754 758 761 765 769 773 776 780 783 786 789 793 795 798 800 802 804 806 808 810 812 814 816 817 819 820 822 823 825 826 828 829 831 832
696 697 701 709 715 711 710 713 711 717 723 720 725 734 737 736 736 739 740 744 757 761 752 741 737 749 753 732 720 720 718 718 716 711 708 708 710 712 712 713 713 715 717 719 720 722 724 728 734 739 743 747 751 754 758 762 765 768 771 775 779 782 786 789 793 795 798 800 802 803 805 807 810 812 814 815 816 817 819 820 822 824 825 827 828 830
699 704 705 702 702 703 709 714 712 712 716 721 730 738 744 745 744 749 748 751 767 762 743 733 730 744 751 730 712 707 700 700 706 706 703 704 706 706 707 707 707 709 712 714 718 719 721 725 730 734 738 742 747 750 753 757 760 764 767 771 774 778 782 785 789 792 795 797 799 800 802 805 807 809 810 812 813 815 816 818 820 821 823 824 826 827
703 704 703 701 698 699 711 719 718 717 719 724 731 739 751 758 763 769 764 759 763 753 734 726 730 739 733 714 706 701 693 691 694 695 694 696 698 699 702 702 701 704 706 709 713 715 717 721 724 727 732 736 741 745 748 752 755 759 763 766 769 773 777 781 785 789 791 793 796 798 799 802 805 806 807 809 810 812 813 815 817 818 820 822 823 824
709 704 699 703 701 695 704 716 723 725 722 726 731 737 750 759 772 781 768 759 757 744 728 723 732 738 724 706 698 693 691 687 685 686 687 687 689 692 695 696 697 699 701 705 708 711 713 715 717 720 725 731 735 739 743 746 750 754 757 761 764 768 772 776 780 784 787 789 792 794 796 799 802 803 804 806 807 809 810 812 813 815 817 818 820 821
713 711 696 697 698 693 697 702 708 714 719 722 719 725 738 741 754 765 757 754 752 738 727 728 737 738 725 707 688 680 682 681 681 682 681 682 683 684 687 690 693 695 697 700 702 705 707 708 712 715 719 724 728 733 737 741 745 749 752 755 759 763 767 771 775 779 782 785 788 791 793 795 798 799 801 802 804 805 807 808 810 812 814 815 817 818
702 699 681 682 685 686 695 693 691 705 720 717 710 721 730 724 729 739 737 733 734 734 730 730 730 717 704 694 681 679 679 677 679 678 677 681 679 679 684 686 689 691 692 695 697 700 701 703 707 710 714 718 722 727 731 735 739 743 746 750 753 758 762 766 770 773 777 781 784 787 789 792 794 796 797 799 800 801 803 805 807 809 810 812 814 815
697 692 673 677 683 680 688 689 686 699 712 712 713 721 715 706 715 732 736 728 733 745 734 722 723 712 702 697 683 682 685 679 680 678 676 679 677 678 683 683 684 686 686 689 691 694 696 699 702 705 709 713 716 720 724 728 733 736 741 745 749 753 757 761 764 768 772 776 779 782 785 788 790 792 793 794 795 797 800 802 804 806 807 809 811 812
684 688 673 676 688 681 676 683 685 686 692 704 715 711 702 706 713 723 739 739 744 753 732 714 719 716 716 709 685 681 689 684 680 678 676 676 677 680 681 680 681 680 681 683 685 689 692 694 697 700 704 707 710 713 717 722 727 732 736 739 743 748 751 755 759 762 767 770 774 777 779 783 785 787 789 790 792 794 797 799 800 803 804 805 807 809
672 686 681 675 683 680 673 685 694 687 681 690 697 692 699 722 727 727 740 743 743 748 732 715 713 709 710 705 688 686 688 683 679 678 677 676 676 677 677 677 678 677 678 680 682 686 688 689 692 694 697 700 703 708 712 717 722 727 731 734 738 741 744 749 753 758 762 765 768 771 774 777 780 783 785 787 789 790 792 794 796 798 800 802 804 805
670 685 688 675 672 677 680 687 696 695 687 685 688 688 694 709 717 721 726 726 730 737 730 720 715 706 696 686 683 685 681 677 678 676 676 674 671 672 672 672 674 675 677 677 679 681 682 683 684 687 691 694 698 704 708 713 718 721 725 730 733 737 741 746 749 752 756 759 762 765 768 772 775 778 781 783 785 786 788 790 792 794 796 798 800 801
674 683 688 678 669 677 685 683 683 689 690 693 697 698 698 699 702 708 711 709 715 725 726 724 720 703 680 669 672 677 674 672 672 672 673 670 666 666 666 666 668 671 672 672 673 674 675 678 679 683 688 692 696 701 705 709 712 716 720 724 728 732 736 740 743 746 750 752 756 759 762 766 769 772 776 778 780 782 784 786 788 790 792 794 796 797
681 682 684 682 677 680 679 670 668 673 678 687 693 694 695 698 702 715 721 708 703 712 716 720 722 700 673 665 666 667 668 667 665 667 668 665 663 662 660 661 663 666 668 668 669 670 671 675 677 681 686 690 693 696 699 703 707 711 715 718 722 726 730 733 737 740 744 747 751 753 756 760 763 766 770 773 775 777 779 782 783 786 788 790 791 793
684 682 682 682 678 675 668 660 662 665 666 676 682 682 685 690 696 713 723 711 704 708 703 709 720 700 669 663 665 664 664 661 660 662 664 662 660 659 658 658 660 664 667 666 666 668 669 672 675 678 682 685 687 690 694 698 701 705 708 712 716 720 723 727 731 734 738 742 744 747 751 755 758 761 764 767 770 772 774 777 779 781 783 785 787 789
687 687 689 685 674 667 661 658 661 661 664 675 677 673 677 682 684 693 698 695 701 707 702 712 724 701 670 663 665 662 661 659 657 658 660 661 659 657 659 659 661 664 665 665 665 666 667 669 673 676 678 680 683 686 689 692 695 698 702 706 710 713 717 721 725 729 733 736 739 742 746 749 752 756 758 761 764 766 769 772 774 776 777 780 782 784
691 689 690 694 693 691 686 681 677 669 667 672 671 669 671 673 677 684 685 688 699 699 696 710 719 695 671 667 665 662 662 661 659 656 656 660 660 659 659 660 663 665 666 666 666 666 667 668 670 673 674 676 679 682 684 687 690 693 696 699 702 706 711 715 720 724 727 730 734 737 740 743 747 750 752 755 758 761 764 766 769 770 772 774 777 779
692 687 684 692 699 702 700 694 686 674 669 669 667 666 668 669 675 683 687 695 705 700 692 701 703 687 675 674 670 667 666 665 663 658 655 657 659 659 660 663 665 666 667 667 666 667 668 668 669 670 671 673 676 679 681 684 686 688 691 694 697 700 705 710 714 717 721 725 728 731 734 737 740 743 746 749 752 755 758 761 763 765 767 769 771 774
693 689 686 690 692 690 691 688 679 670 669 672 671 668 667 667 670 677 687 694 698 700 698 694 691 688 685 681 676 671 669 668 666 662 659 657 658 660 663 665 665 664 665 664 665 666 667 668 668 668 669 671 673 676 679 681 683 685 688 690 693 697 701 705 709 712 715 719 722 725 727 730 734 737 740 744 747 750 753 755 757 759 762 764 766 769
696 694 692 695 695 690 688 686 680 674 671 670 670 669 668 667 668 675 684 683 683 697 703 690 685 693 689 679 676 674 670 669 667 663 660 658 659 660 661 663 664 663 663 663 664 666 666 667 667 667 667 668 670 673 675 677 680 682 684 687 690 693 696 700 703 707 710 713 716 719 721 724 728 731 735 739 742 745 747 749 752 754 757 760 761 764
700 697 693 695 696 692 687 685 683 681 679 675 673 671 670 669 671 675 679 675 677 691 697 685 684 693 686 674 672 670 668 668 665 661 657 656 658 658 660 662 662 661 661 662 664 664 664 665 665 665 666 666 668 670 671 673 676 677 680 683 686 689 692 695 699 701 705 708 710 712 716 720 724 727 731 734 737 740 742 744 747 750 753 755 757 759
704 701 698 699 698 693 689 687 685 685 686 685 681 677 676 674 673 675 677 673 674 681 682 680 685 687 678 671 668 663 661 662 661 658 657 657 657 657 659 662 661 658 658 659 660 660 660 661 661 662 663 664 665 666 668 670 672 673 676 678 681 685 687 691 695 697 700 703 705 708 712 716 720 723 726 729 731 734 737 740 743 746 748 750 753 755
706 707 704 701 700 696 690 687 688 688 689 690 686 681 680 680 679 680 680 678 679 682 679 679 687 685 672 665 664 661 660 661 663 664 663 660 659 658 659 660 659 658 656 655 656 656 656 657 658 659 660 660 661 663 665 666 668 670 672 675 678 680 683 687 691 693 696 698 701 705 709 712 715 718 721 724 727 729 732 736 739 741 744 746 749 751
710 710 704 703 706 699 690 690 691 688 690 692 689 684 682 683 682 681 680 679 682 685 685 686 690 686 671 664 665 665 664 666 668 667 666 663 660 658 659 658 657 657 654 652 652 652 653 655 656 657 657 656 656 659 660 662 664 667 668 670 673 676 681 684 686 689 692 694 698 702 704 707 711 714 717 720 723 726 729 732 735 738 740 742 745 747
715 715 707 706 709 698 690 694 692 693 702 699 685 677 678 679 678 677 676 675 674 678 684 685 682 675 667 665 667 668 667 667 666 664 664 663 660 658 657 655 653 652 649 648 648 649 650 651 651 652 652 651 652 654 656 658 660 661 663 666 671 675 678 680 682 686 689 692 696 698 700 704 707 709 713 715 719 723 726 729 731 733 736 738 741 743
718 719 712 709 711 703 695 696 698 704 709 693 670 663 667 670 673 675 674 670 668 668 670 671 668 665 663 665 667 669 666 663 660 658 657 657 658 658 656 653 651 649 648 647 646 646 647 647 648 648 648 648 649 650 652 654 655 657 660 665 669 671 674 676 679 683 686 690 693 695 698 701 703 706 709 712 716 720 722 725 727 730 733 735 737 739
720 720 715 712 713 708 698 702 713 713 699 678 665 664 665 665 668 671 672 668 665 665 665 666 666 664 663 663 663 663 662 658 655 654 653 651 653 656 656 654 652 650 649 648 646 646 646 646 647 646 646 647 647 647 649 650 651 655 658 661 663 666 668 672 675 679 682 685 688 690 693 695 698 702 706 709 713 716 718 721 723 726 729 731 733 734
721 720 716 712 713 711 706 709 712 701 683 672 670 669 668 669 672 676 678 672 666 666 668 669 667 663 662 662 660 658 657 656 655 655 652 650 649 651 653 652 649 648 647 646 646 646 645 645 645 645 645 646 646 645 646 647 649 652 654 656 659 662 664 668 671 674 677 679 680 683 686 689 693 697 701 705 708 711 714 716 717 720 723 726 728 730
720 720 718 716 712 710 710 705 695 689 686 680 676 673 671 672 674 678 680 674 667 669 672 673 672 668 664 663 662 659 658 661 664 659 650 645 645 645 646 645 644 645 644 644 644 644 645 645 645 644 644 644 644 643 643 644 646 648 650 653 655 658 661 664 667 669 671 672 674 676 680 684 688 691 695 699 702 704 707 709 711 714 717 720 722 724
719 719 719 720 713 707 710 707 700 701 699 684 675 674 672 672 672 674 679 677 672 672 674 673 673 672 669 668 667 665 666 671 672 662 648 640 638 639 642 642 642 643 644 644 644 643 643 644 643 643 643 642 641 641 641 642 643 645 647 649 651 655 658 659 661 663 665 667 670 673 677 681 684 687 690 693 695 697 699 702 705 709 712 714 716 718
719 718 718 721 715 708 711 712 708 704 693 678 674 674 672 671 671 674 684 684 675 672 673 673 674 673 672 673 672 670 674 677 671 659 649 644 641 642 645 645 644 644 643 643 644 643 643 643 643 642 641 639 639 639 639 640 641 642 644 646 648 652 654 654 655 658 661 664 668 671 674 677 680 683 685 687 689 691 694 697 701 704 707 710 712 714
721 720 721 724 719 711 711 709 702 694 683 675 675 675 671 669 671 684 697 690 675 673 674 674 675 674 672 674 674 674 675 673 665 657 653 651 648 648 649 649 648 647 644 643 643 644 643 643 643 641 638 637 637 637 637 638 639 640 642 644 646 648 649 651 654 657 660 664 666 669 671 673 676 678 679 682 684 687 691 694 697 699 702 704 707 710
722 722 721 721 716 712 713 710 701 690 677 672 673 671 670 672 678 691 697 684 674 675 674 672 674 673 672 674 675 674 670 664 659 656 654 653 653 651 650 649 648 647 645 644 644 645 643 642 642 641 638 637 637 636 636 637 638 639 641 643 644 645 647 651 654 656 659 661 663 666 667 670 672 674 677 680 683 686 689 691 694 696 698 700 703 706
720 720 721 720 715 710 708 708 706 695 677 670 670 668 670 680 687 687 682 676 674 674 672 672 673 672 672 674 673 672 668 662 658 657 656 656 656 654 652 651 649 648 647 646 646 645 643 642 642 642 640 639 638 637 636 636 637 639 641 642 643 644 647 649 652 654 656 658 660 663 665 667 670 673 676 680 682 685 687 690 692 695 696 699 701 702
718 717 716 713 711 711 709 709 713 705 685 675 677 675 675 682 683 677 673 673 672 671 670 672 671 671 673 673 671 670 668 664 661 659 659 660 658 655 654 653 652 651 650 648 647 645 643 643 643 643 642 641 639 638 636 636 637 639 640 641 642 644 646 648 650 652 654 656 658 660 662 665 668 671 674 677 679 682 685 687 690 692 694 696 698 700
720 720 715 707 706 712 711 704 703 700 689 684 685 685 684 682 677 675 675 673 670 670 671 671 671 671 673 673 672 670 668 665 664 662 662 662 659 657 656 654 654 653 651 650 650 648 645 644 643 644 645 644 642 640 638 637 638 639 640 641 642 644 645 647 649 651 653 655 656 659 661 663 666 668 671 673 676 678 681 683 686 688 690 693 695 696
722 726 727 721 716 715 709 699 695 694 690 687 687 687 687 684 678 677 678 675 673 673 673 673 673 672 672 673 673 670 668 666 666 665 665 663 661 660 658 656 655 654 651 652 653 651 647 646 646 646 646 645 644 643 640 639 639 640 641 643 644 644 645 647 648 650 652 653 655 657 659 661 664 666 668 670 673 675 677 679 682 684 686 688 690 692
720 726 729 727 721 716 709 700 697 696 690 686 687 688 688 687 683 681 681 679 677 676 675 675 675 673 674 675 673 670 669 668 667 667 666 664 663 662 660 658 656 653 652 653 654 652 649 648 648 648 648 647 646 645 643 642 642 642 644 644 645 645 645 646 647 649 650 652 654 656 658 659 661 663 665 668 670 671 673 676 678 680 682 684 686 687
717 722 727 727 724 721 714 702 697 696 693 690 691 690 688 688 687 685 685 683 680 678 676 675 675 675 676 675 674 673 672 670 669 669 666 664 663 662 660 660 657 655 654 654 654 653 650 649 649 649 649 649 648 647 646 645 645 645 645 645 646 646 646 646 647 648 650 651 653 655 656 658 660 661 663 665 667 669 671 673 675 676 678 680 682 682
717 721 724 723 721 720 715 706 701 701 697 693 692 691 690 690 689 688 687 685 682 680 678 676 675 676 676 676 675 674 673 672 672 671 667 666 664 662 661 661 659 656 655 655 655 654 652 650 651 650 650 650 649 650 650 649 648 648 648 647 647 646 646 646 647 648 649 651 652 654 655 657 659 660 662 664 666 668 669 671 673 674 674 676 678 679
718 721 721 719 718 716 710 705 703 701 696 690 689 690 691 692 692 690 689 687 683 681 679 676 675 674 674 675 675 674 674 675 674 672 669 668 666 664 663 662 661 659 658 657 656 655 653 653 652 652 651 652 652 652 652 652 652 651 650 650 649 648 647 648 647 648 650 651 653 654 656 657 659 660 662 663 665 667 668 669 670 671 672 674 676 676
718 720 717 718 720 714 706 701 701 702 698 691 689 692 694 694 693 691 690 688 685 683 681 678 674 673 673 673 673 674 676 676 674 673 671 669 668 667 665 664 663 661 660 659 658 657 656 655 654 653 653 654 654 654 654 654 654 654 653 653 652 651 650 650 650 651 652 653 654 656 657 658 659 661 662 663 664 665 667 668 669 670 672 673 674 675
715 715 713 715 715 708 702 699 700 704 703 697 694 696 696 694 693 692 691 690 686 683 682 680 677 674 673 673 673 674 675 675 674 672 670 669 669 667 665 665 664 662 661 660 659 658 658 658 657 656 656 655 656 656 656 656 656 656 655 655 654 653 652 652 652 653 654 655 657 657 658 659 661 662 664 664 665 665 667 669 670 671 672 673 674 675